Location: Albany
(35.0000°S, 118.0000°E)
Time: 07:45:41
(UTC-04:00)

Cosmos 1933 - Visible Passes

Search period start: 04 August 2015 00:00
Search period end: 14 August 2015 00:00
Orbit: 550 x 569 km, 82.5° (Epoch: 03 August)

Date Brightness Start Highest point End Pass type
(mag) Time Alt. Az. Time Alt. Az. Time Alt. Az.
04 Aug 5.4 07:00:38 10° NW 07:04:19 30° WSW 07:08:00 10° SSW visible
04 Aug 5.1 17:04:42 10° SSE 17:08:29 33° ESE 17:12:14 10° NE visible
05 Aug 5.7 06:59:37 10° NW 07:03:06 25° WSW 07:06:34 10° SSW visible
05 Aug 4.7 17:03:19 10° S 17:07:15 40° E 17:11:08 10° NNE visible
06 Aug 6.0 06:58:39 10° NW 07:01:54 21° WSW 07:05:05 10° SSW visible
06 Aug 4.3 17:01:58 10° S 17:06:01 48° E 17:10:00 10° NNE visible
07 Aug 6.3 06:57:45 10° WNW 07:00:42 18° WSW 07:03:32 10° SSW visible
07 Aug 3.9 17:01:11 13° S 17:04:46 59° E 17:08:48 10° NNE visible
08 Aug 6.4 06:56:58 10° WNW 06:59:30 15° WSW 07:01:55 10° SW visible
08 Aug 3.5 17:01:38 31° S 17:03:30 73° E 17:07:35 10° NNE visible
09 Aug 6.6 06:56:20 10° W 06:58:20 13° WSW 07:00:07 10° SW visible
09 Aug 3.3 17:02:07 84° SSE 17:02:14 88° E 17:06:20 10° N visible
10 Aug 6.8 06:56:07 10° W 06:57:10 11° WSW 06:57:56 10° WSW visible
10 Aug 4.3 17:02:34 36° N 17:02:34 36° N 17:05:01 10° N visible
11 Aug 5.5 17:02:58 15° N 17:02:58 15° N 17:03:41 10° N visible
